Location: Unspecified
(0.0000°N, 0.0000°E)
Time: 03:23:11
(UTC+00:00)

ESSA 4 - Pass Details

Date: 04 November 2024
Orbit: 1326 x 1439 km, 102.1° (Epoch: 03 December)

Event Time Altitude Azimuth Distance (km) Brightness Sun altitude
Rises 04:15:31 0° 168° (SSE) 4,344 12.3 -21.2°
Reaches altitude 10° 04:18:13 10° 169° (S) 3,364 11.6 -20.5°
Maximum altitude 04:25:56 76° 253° (WSW) 1,363 9.1 -18.7°
Drops below altitude 10° 04:33:39 10° 339° (NNW) 3,359 10.9 -16.8°
Sets 04:36:21 0° 340° (NNW) 4,338 11.5 -16.2°
